Location: Kershaw
(34.5481°N, 80.5823°W)
Time: 20:31:53
(UTC+00:00)

deb Explorer IX - Pass Details

Date: 04 October 2022
Orbit: 533 x 1057 km, 38.8° (Epoch: 06 December)

Event Time Altitude Azimuth Distance (km) Brightness Sun altitude
Exits shadow 09:39:16 18° 186° (S) 1,490 ? -21.3°
Maximum altitude 09:41:28 27° 144° (SE) 1,231 ? -20.9°
Drops below altitude 10° 09:45:36 10° 87° (E) 2,151 ? -20.1°
Sets 09:48:29 0° 76° (ENE) 3,175 ? -19.5°
